When you browse on this site, cookies collect data to enhance your experience and personalize the content and advertising you see.
Visit our Privacy Policy to learn more. By continuing to use the site, you agree to this use of cookies and data.
  • En España
  • Lista de países
  • Para 7 días
  • Temperatura del agua
  • Mapa Satelital
  • El tiempo en el mapa
  • Informadores
  • user-avatar
    Iniciar sesión

    Tiempo cada hora Cochabamba

    Hoy, 21 Enero, Lunes

    Tiempo Temperatura Precipitaciones Viento Presión Humedad
    00:00 +16°C° 0 mm 1 mps 556 mmHg 71%
    01:00 +16°C° 0 mm 1 mps 555 mmHg 71%
    02:00 +15°C° 0 mm 1 mps 555 mmHg 72%
    03:00 +15°C° 0 mm 1 mps 555 mmHg 72%
    04:00 +14°C° 0 mm 1 mps 555 mmHg 72%
    05:00 +14°C° 0 mm 1 mps 555 mmHg 72%
    06:00 +15°C° 0 mm 1 mps 556 mmHg 67%
    07:00 +16°C° 0 mm 1 mps 556 mmHg 62%
    08:00 +18°C° 0 mm 1 mps 557 mmHg 57%
    09:00 +20°C° 0 mm 1 mps 557 mmHg 52%
    10:00 +21°C° 0 mm 1 mps 558 mmHg 48%
    11:00 +23°C° 0 mm 1 mps 558 mmHg 43%
    12:00 +24°C° 0 mm 1 mps 558 mmHg 41%
    13:00 +25°C° 0 mm 1 mps 558 mmHg 39%
    14:00 +25°C° 0 mm 2 mps 558 mmHg 37%
    15:00 +25°C° 0.1 mm 2 mps 557 mmHg 40%
    16:00 +25°C° 0.1 mm 2 mps 557 mmHg 43%
    17:00 +25°C° 0.1 mm 3 mps 557 mmHg 46%
    18:00 +23°C° 0.1 mm 2 mps 556 mmHg 53%
    19:00 +20°C° 0.1 mm 2 mps 556 mmHg 61%
    20:00 +19°C° 0.1 mm 2 mps 556 mmHg 68%
    21:00 +18°C° 0.1 mm 2 mps 556 mmHg 70%
    22:00 +19°C° 0.1 mm 1 mps 557 mmHg 72%
    23:00 +18°C° 0.1 mm 1 mps 557 mmHg 75%

    Mañana, 22 Enero, Martes

    Tiempo Temperatura Precipitaciones Viento Presión Humedad
    00:00 +18°C° 0.1 mm 1 mps 557 mmHg 75%
    01:00 +16°C° 0.1 mm 1 mps 557 mmHg 76%
    02:00 +16°C° 0.1 mm 1 mps 556 mmHg 76%
    03:00 +16°C° 0.1 mm 1 mps 556 mmHg 77%
    04:00 +14°C° 0.1 mm 0 mps 556 mmHg 77%
    05:00 +14°C° 0.1 mm 0 mps 556 mmHg 78%
    06:00 +15°C° 0 mm 1 mps 556 mmHg 73%
    07:00 +16°C° 0 mm 1 mps 557 mmHg 69%
    08:00 +18°C° 0 mm 1 mps 557 mmHg 64%
    09:00 +19°C° 0 mm 1 mps 558 mmHg 60%
    10:00 +21°C° 0 mm 1 mps 558 mmHg 56%
    11:00 +22°C° 0 mm 1 mps 559 mmHg 51%
    12:00 +23°C° 0.4 mm 2 mps 558 mmHg 50%
    13:00 +24°C° 0.4 mm 2 mps 558 mmHg 48%
    14:00 +24°C° 0.4 mm 2 mps 558 mmHg 46%
    15:00 +24°C° 0.7 mm 2 mps 558 mmHg 48%
    16:00 +24°C° 0.7 mm 3 mps 557 mmHg 51%
    17:00 +22°C° 0.7 mm 3 mps 557 mmHg 53%
    18:00 +21°C° 0.3 mm 3 mps 556 mmHg 58%
    19:00 +20°C° 0.3 mm 2 mps 556 mmHg 64%
    20:00 +18°C° 0.3 mm 2 mps 556 mmHg 69%
    21:00 +19°C° 0 mm 1 mps 557 mmHg 71%
    22:00 +18°C° 0 mm 1 mps 557 mmHg 73%
    23:00 +18°C° 0 mm 1 mps 557 mmHg 75%

    Pasado mañana, 23 Enero, Miércoles

    Tiempo Temperatura Precipitaciones Viento Presión Humedad
    00:00 +18°C° 0 mm 1 mps 557 mmHg 75%
    01:00 +16°C° 0 mm 1 mps 557 mmHg 76%
    02:00 +16°C° 0 mm 1 mps 556 mmHg 76%
    03:00 +16°C° 0 mm 1 mps 556 mmHg 76%
    04:00 +15°C° 0 mm 1 mps 556 mmHg 76%
    05:00 +15°C° 0 mm 1 mps 555 mmHg 75%
    06:00 +16°C° 0 mm 1 mps 556 mmHg 70%
    07:00 +18°C° 0 mm 1 mps 557 mmHg 65%
    08:00 +19°C° 0 mm 1 mps 558 mmHg 60%
    09:00 +20°C° 0 mm 1 mps 558 mmHg 54%
    10:00 +22°C° 0 mm 1 mps 559 mmHg 49%
    11:00 +23°C° 0 mm 1 mps 560 mmHg 44%
    12:00 +24°C° 0.4 mm 2 mps 559 mmHg 43%
    13:00 +25°C° 0.4 mm 2 mps 559 mmHg 42%
    14:00 +25°C° 0.4 mm 3 mps 559 mmHg 42%
    15:00 +25°C° 0.9 mm 3 mps 558 mmHg 44%
    16:00 +24°C° 0.9 mm 3 mps 557 mmHg 47%
    17:00 +24°C° 0.9 mm 3 mps 557 mmHg 50%
    18:00 +23°C° 0.7 mm 2 mps 557 mmHg 56%
    19:00 +20°C° 0.7 mm 2 mps 557 mmHg 62%
    20:00 +20°C° 0.7 mm 1 mps 556 mmHg 68%
    21:00 +19°C° 0.1 mm 1 mps 557 mmHg 70%
    22:00 +18°C° 0.1 mm 1 mps 557 mmHg 73%
    23:00 +18°C° 0.1 mm 1 mps 557 mmHg 76%

    24 Enero, Jueves

    Tiempo Temperatura Precipitaciones Viento Presión Humedad
    00:00 +16°C° 0 mm 1 mps 556 mmHg 77%
    01:00 +15°C° 0 mm 0 mps 556 mmHg 78%
    02:00 +14°C° 0 mm 0 mps 555 mmHg 78%
    03:00 +14°C° 0 mm 0 mps 555 mmHg 79%
    04:00 +13°C° 0 mm 0 mps 555 mmHg 80%
    05:00 +13°C° 0 mm 0 mps 554 mmHg 81%
    06:00 +14°C° 0 mm 0 mps 555 mmHg 74%
    07:00 +16°C° 0 mm 1 mps 557 mmHg 66%
    08:00 +19°C° 0 mm 1 mps 558 mmHg 59%
    09:00 +21°C° 0 mm 1 mps 559 mmHg 53%
    10:00 +22°C° 0 mm 1 mps 559 mmHg 46%
    11:00 +24°C° 0 mm 2 mps 560 mmHg 40%
    12:00 +25°C° 0 mm 2 mps 559 mmHg 37%
    13:00 +26°C° 0 mm 3 mps 559 mmHg 35%
    14:00 +27°C° 0 mm 3 mps 559 mmHg 33%
    15:00 +26°C° 0.3 mm 3 mps 558 mmHg 37%
    16:00 +26°C° 0.3 mm 3 mps 558 mmHg 41%
    17:00 +25°C° 0.3 mm 3 mps 557 mmHg 45%
    18:00 +23°C° 0.4 mm 2 mps 557 mmHg 53%
    19:00 +21°C° 0.4 mm 2 mps 556 mmHg 60%
    20:00 +20°C° 0.4 mm 1 mps 556 mmHg 67%
    21:00 +19°C° 0 mm 1 mps 556 mmHg 68%
    22:00 +19°C° 0 mm 1 mps 557 mmHg 69%
    23:00 +18°C° 0 mm 1 mps 557 mmHg 71%

    25 Enero, Viernes

    Tiempo Temperatura Precipitaciones Viento Presión Humedad
    00:00 +18°C° 0 mm 1 mps 556 mmHg 72%
    01:00 +16°C° 0 mm 1 mps 556 mmHg 73%
    02:00 +15°C° 0 mm 1 mps 555 mmHg 74%
    03:00 +15°C° 0 mm 1 mps 554 mmHg 74%
    04:00 +14°C° 0 mm 1 mps 554 mmHg 75%
    05:00 +14°C° 0 mm 1 mps 554 mmHg 75%
    06:00 +15°C° 0 mm 1 mps 555 mmHg 67%
    07:00 +18°C° 0 mm 1 mps 556 mmHg 59%
    08:00 +17°C° 0 mm 0 mps 557 mmHg 50%
    09:00 +21°C° 0 mm 1 mps 558 mmHg 44%
    10:00 +23°C° 0 mm 1 mps 558 mmHg 38%
    11:00 +25°C° 0 mm 1 mps 559 mmHg 32%
    12:00 +26°C° 0 mm 1 mps 559 mmHg 31%
    13:00 +27°C° 0 mm 1 mps 558 mmHg 30%
    14:00 +28°C° 0 mm 2 mps 558 mmHg 30%
    15:00 +27°C° 0.5 mm 2 mps 557 mmHg 34%
    16:00 +26°C° 0.5 mm 2 mps 556 mmHg 37%
    17:00 +26°C° 0.5 mm 3 mps 555 mmHg 41%
    18:00 +24°C° 0.8 mm 3 mps 555 mmHg 47%
    19:00 +21°C° 0.8 mm 3 mps 555 mmHg 54%
    20:00 +19°C° 0.8 mm 3 mps 554 mmHg 60%
    21:00 +19°C° 0.2 mm 2 mps 555 mmHg 63%
    22:00 +18°C° 0.2 mm 2 mps 555 mmHg 65%
    23:00 +18°C° 0.2 mm 1 mps 556 mmHg 68%

    26 Enero, Sábado

    Tiempo Temperatura Precipitaciones Viento Presión Humedad
    00:00 +18°C° 0 mm 1 mps 555 mmHg 67%
    01:00 +16°C° 0 mm 1 mps 555 mmHg 66%
    02:00 +16°C° 0 mm 1 mps 554 mmHg 65%
    03:00 +16°C° 0 mm 1 mps 554 mmHg 65%
    04:00 +15°C° 0 mm 1 mps 554 mmHg 65%
    05:00 +15°C° 0 mm 1 mps 554 mmHg 65%
    06:00 +16°C° 0 mm 1 mps 555 mmHg 60%
    07:00 +19°C° 0 mm 1 mps 555 mmHg 54%
    08:00 +20°C° 0 mm 1 mps 556 mmHg 49%
    09:00 +21°C° 0 mm 1 mps 557 mmHg 46%
    10:00 +23°C° 0 mm 1 mps 558 mmHg 43%
    11:00 +25°C° 0 mm 1 mps 558 mmHg 39%
    12:00 +25°C° 0.4 mm 2 mps 558 mmHg 38%
    13:00 +26°C° 0.4 mm 3 mps 558 mmHg 37%
    14:00 +27°C° 0.4 mm 3 mps 557 mmHg 35%
    15:00 +27°C° 0.9 mm 4 mps 557 mmHg 37%
    16:00 +26°C° 0.9 mm 4 mps 556 mmHg 38%
    17:00 +26°C° 0.9 mm 5 mps 556 mmHg 39%
    18:00 +23°C° 0.4 mm 4 mps 556 mmHg 47%
    19:00 +21°C° 0.4 mm 3 mps 555 mmHg 55%
    20:00 +19°C° 0.4 mm 2 mps 555 mmHg 63%
    21:00 +19°C° 0.3 mm 2 mps 556 mmHg 66%
    22:00 +18°C° 0.3 mm 2 mps 556 mmHg 69%
    23:00 +18°C° 0.3 mm 2 mps 556 mmHg 73%
    Mostrar más